TimeEDT,TemperatureF,Dew PointF,Humidity,Sea Level PressureIn,VisibilityMPH,Wind Direction,Wind SpeedMPH,Gust SpeedMPH,PrecipitationIn,Events,Conditions,WindDirDegrees,DateUTC
12:15 AM,24.8,21.2,86,29.60,10.0,SSW,13.8,18.4,N/A,,Clear,200,2014-03-14 04:15:00
12:35 AM,26.6,21.2,80,29.59,9.0,SSW,11.5,-,N/A,,Clear,210,2014-03-14 04:35:00
12:55 AM,26.6,21.2,80,29.58,8.0,SSW,11.5,16.1,N/A,,Clear,200,2014-03-14 04:55:00
1:15 AM,26.6,21.2,80,29.57,8.0,SSW,11.5,-,N/A,,Clear,200,2014-03-14 05:15:00
1:35 AM,26.6,21.2,80,29.56,8.0,SSW,11.5,-,N/A,,Clear,210,2014-03-14 05:35:00
1:55 AM,26.6,23.0,86,29.55,8.0,SSW,10.4,-,N/A,,Clear,200,2014-03-14 05:55:00
2:15 AM,26.6,23.0,86,29.54,7.0,SSW,10.4,-,N/A,,Clear,210,2014-03-14 06:15:00
2:35 AM,26.6,24.8,93,29.54,7.0,SSW,9.2,-,N/A,,Clear,200,2014-03-14 06:35:00
2:55 AM,28.4,24.8,86,29.53,7.0,SSW,12.7,19.6,N/A,,Clear,200,2014-03-14 06:55:00
3:15 AM,28.4,26.6,93,29.52,7.0,SSW,13.8,19.6,N/A,,Clear,200,2014-03-14 07:15:00
3:35 AM,28.4,24.8,86,29.51,6.0,SSW,12.7,17.3,N/A,,Clear,200,2014-03-14 07:35:00
3:55 AM,28.4,24.8,86,29.49,6.0,SSW,10.4,-,N/A,,Clear,200,2014-03-14 07:55:00
4:15 AM,28.4,24.8,86,29.48,5.0,South,10.4,-,N/A,,Clear,190,2014-03-14 08:15:00
4:35 AM,28.4,24.8,86,29.47,5.0,South,9.2,-,N/A,,Clear,190,2014-03-14 08:35:00
4:55 AM,28.4,24.8,86,29.45,5.0,South,10.4,-,N/A,,Clear,190,2014-03-14 08:55:00
5:15 AM,28.4,26.6,93,29.44,5.0,SSW,10.4,-,N/A,,Clear,200,2014-03-14 09:15:00
5:35 AM,28.4,26.6,93,29.44,5.0,SSW,9.2,-,N/A,,Clear,200,2014-03-14 09:35:00
5:55 AM,28.4,26.6,93,29.42,4.0,SSW,11.5,-,N/A,,Clear,200,2014-03-14 09:55:00
6:15 AM,30.2,28.4,93,29.41,4.0,SSW,10.4,-,N/A,,Clear,210,2014-03-14 10:15:00
6:35 AM,30.2,26.6,86,29.40,4.0,SSW,10.4,-,N/A,,Clear,210,2014-03-14 10:35:00
6:55 AM,30.2,28.4,93,29.39,5.0,SSW,11.5,-,N/A,,Clear,210,2014-03-14 10:55:00
7:15 AM,30.2,28.4,93,29.39,5.0,SW,8.1,-,N/A,,Clear,220,2014-03-14 11:15:00
7:35 AM,30.2,28.4,93,29.39,5.0,SW,3.5,-,N/A,,Clear,230,2014-03-14 11:35:00
7:55 AM,30.2,28.4,93,29.39,4.0,Calm,Calm,-,N/A,,Clear,0,2014-03-14 11:55:00
8:15 AM,30.2,28.4,93,29.39,2.5,Calm,Calm,-,N/A,,Clear,0,2014-03-14 12:15:00
8:35 AM,28.4,26.6,93,29.39,2.5,Calm,Calm,-,N/A,,Clear,0,2014-03-14 12:35:00
8:55 AM,26.6,24.8,93,29.39,3.0,Calm,Calm,-,N/A,,Partly Cloudy,0,2014-03-14 12:55:00
9:15 AM,28.4,26.6,93,29.39,2.5,Calm,Calm,-,N/A,,Clear,0,2014-03-14 13:15:00
9:35 AM,28.4,24.8,86,29.39,2.5,Calm,Calm,-,N/A,,Clear,0,2014-03-14 13:35:00
9:55 AM,28.4,26.6,93,29.38,2.5,Calm,Calm,-,N/A,,Clear,0,2014-03-14 13:55:00
10:15 AM,30.2,28.4,93,29.37,3.0,Calm,Calm,-,N/A,,Clear,0,2014-03-14 14:15:00
10:35 AM,33.8,28.4,81,29.37,7.0,West,8.1,-,N/A,,Clear,270,2014-03-14 14:35:00
10:55 AM,35.6,30.2,81,29.36,8.0,West,6.9,-,N/A,,Clear,270,2014-03-14 14:55:00
11:15 AM,37.4,30.2,75,29.35,10.0,WNW,9.2,-,N/A,,Clear,290,2014-03-14 15:15:00
11:35 AM,39.2,30.2,70,29.35,10.0,WNW,11.5,-,N/A,,Clear,300,2014-03-14 15:35:00
11:55 AM,39.2,33.8,81,29.35,10.0,WNW,11.5,-,N/A,,Partly Cloudy,300,2014-03-14 15:55:00
12:15 PM,41.0,33.8,76,29.35,10.0,NW,8.1,-,N/A,,Scattered Clouds,320,2014-03-14 16:15:00
12:35 PM,42.8,32.0,66,29.35,10.0,NNW,9.2,-,N/A,,Mostly Cloudy,340,2014-03-14 16:35:00
12:55 PM,42.8,32.0,66,29.36,10.0,NNW,6.9,-,N/A,,Mostly Cloudy,330,2014-03-14 16:55:00
1:15 PM,42.8,32.0,66,29.37,10.0,West,9.2,-,N/A,,Overcast,280,2014-03-14 17:15:00
1:35 PM,42.8,30.2,61,29.38,10.0,WNW,11.5,-,N/A,,Overcast,290,2014-03-14 17:35:00
1:55 PM,42.8,33.8,70,29.39,10.0,West,11.5,-,N/A,,Overcast,270,2014-03-14 17:55:00
2:15 PM,42.8,33.8,70,29.39,10.0,West,9.2,-,N/A,,Overcast,280,2014-03-14 18:15:00
2:35 PM,41.0,33.8,76,29.39,10.0,West,6.9,-,N/A,,Overcast,280,2014-03-14 18:35:00
2:55 PM,39.2,35.6,87,29.39,8.0,WNW,5.8,-,N/A,,Overcast,300,2014-03-14 18:55:00
3:15 PM,39.2,37.4,93,29.39,5.0,West,5.8,-,0.01,,Overcast,260,2014-03-14 19:15:00
3:35 PM,39.2,35.6,87,29.39,7.0,West,11.5,18.4,0.02,,Overcast,270,2014-03-14 19:35:00
3:55 PM,37.4,33.8,87,29.40,9.0,West,12.7,-,0.04,,Overcast,270,2014-03-14 19:55:00
4:15 PM,37.4,33.8,87,29.41,6.0,West,11.5,-,N/A,,Overcast,280,2014-03-14 20:15:00
4:35 PM,37.4,33.8,87,29.41,9.0,West,12.7,-,0.02,,Overcast,270,2014-03-14 20:35:00
4:55 PM,37.4,33.8,87,29.42,9.0,WNW,10.4,-,0.03,,Overcast,290,2014-03-14 20:55:00
5:15 PM,37.4,33.8,87,29.43,10.0,WNW,11.5,-,0.01,,Overcast,290,2014-03-14 21:15:00
5:35 PM,37.4,35.6,93,29.44,10.0,NNW,8.1,16.1,0.01,,Overcast,340,2014-03-14 21:35:00
5:55 PM,37.4,33.8,87,29.46,5.0,NNW,5.8,-,0.01,,Mostly Cloudy,340,2014-03-14 21:55:00
6:15 PM,37.4,33.8,87,29.47,5.0,NNW,5.8,-,N/A,,Overcast,330,2014-03-14 22:15:00
6:35 PM,37.4,33.8,87,29.48,6.0,NW,15.0,21.9,N/A,,Overcast,310,2014-03-14 22:35:00
6:55 PM,37.4,33.8,87,29.48,10.0,NW,10.4,17.3,N/A,,Overcast,320,2014-03-14 22:55:00
7:15 PM,37.4,33.8,87,29.50,10.0,WNW,5.8,-,N/A,,Overcast,300,2014-03-14 23:15:00
7:35 PM,37.4,32.0,81,29.51,10.0,WNW,11.5,17.3,N/A,,Overcast,300,2014-03-14 23:35:00
7:55 PM,37.4,32.0,81,29.52,10.0,WNW,10.4,-,N/A,,Overcast,300,2014-03-14 23:55:00
8:15 PM,37.4,32.0,81,29.53,10.0,WNW,8.1,-,N/A,,Overcast,290,2014-03-15 00:15:00
8:35 PM,35.6,33.8,93,29.54,10.0,WNW,9.2,-,N/A,,Overcast,290,2014-03-15 00:35:00
8:55 PM,35.6,32.0,87,29.55,10.0,WNW,11.5,-,N/A,,Overcast,290,2014-03-15 00:55:00
9:15 PM,35.6,32.0,87,29.56,10.0,WNW,9.2,-,N/A,,Overcast,290,2014-03-15 01:15:00
9:35 PM,35.6,32.0,87,29.57,10.0,WNW,9.2,-,N/A,,Overcast,300,2014-03-15 01:35:00
9:55 PM,33.8,28.4,81,29.59,10.0,North,6.9,-,N/A,,Overcast,10,2014-03-15 01:55:00
10:15 PM,32.0,28.4,87,29.61,8.0,North,9.2,17.3,N/A,,Overcast,360,2014-03-15 02:15:00
10:35 PM,30.2,26.6,86,29.63,10.0,North,8.1,-,N/A,,Overcast,10,2014-03-15 02:35:00
10:55 PM,30.2,24.8,80,29.64,10.0,North,12.7,26.5,N/A,,Overcast,350,2014-03-15 02:55:00
11:15 PM,30.2,24.8,80,29.66,10.0,NNW,11.5,18.4,N/A,,Mostly Cloudy,340,2014-03-15 03:15:00
11:35 PM,30.2,23.0,75,29.67,10.0,NNW,16.1,21.9,N/A,,Overcast,340,2014-03-15 03:35:00
11:55 PM,28.4,21.2,74,29.68,10.0,NNW,12.7,20.7,N/A,,Overcast,340,2014-03-15 03:55:00